Regional Weather Roundup
Issued by NWS Northern Indiana

Home | Current Version | Previous Version | Graphics & Text | Print | Product List | Glossary On
Versions: 1 2 3 4 5 6 7 8 9 10 11 12 13 14 15 16 17 18 19 20 21 22 23 24 25 26 27 28 29 30 31 32 33 34 35 36 37 38 39 40 41 42 43 44 45 46 47 48 49 50
000
ASUS43 KIWX 030100
RWRIWX

KIWX WEATHER ROUNDUP
NATIONAL WEATHER SERVICE NORTHERN INDIANA
900 PM EDT SAT MAY 02 2015

NOTE: "FAIR" INDICATES FEW OR NO CLOUDS BELOW 12,000 FEET WITH NO
SIGNIFICANT WEATHER AND/OR OBSTRUCTIONS TO VISIBILITY.

* THESE STATIONS ARE NOT UNDER NWS QUALITY CONTROL. THEY ALSO MAY NOT
  REPORT WEATHER SUCH AS PRECIPITATION OR FOG.

INZ001>027-030200-
NORTHERN INDIANA

CITY           SKY/WX    TMP DP  RH WIND       PRES   REMARKS
GARY*          MOCLDY    73 N/A N/A CALM      29.97R
SOUTH BEND     PTCLDY    66  38  35 CALM      29.99S
GOSHEN         CLEAR     65  37  35 S7        30.00R
ANGOLA*        CLEAR     63  41  45 CALM      30.01R
FORT WAYNE     PTCLDY    64  43  46 SW5       30.02S
PERU/GRISSOM   PTCLDY    63  44  51 SW7       30.01R

$$
INZ028>050-030200-
CENTRAL INDIANA

CITY           SKY/WX    TMP DP  RH WIND       PRES   REMARKS
LAFAYETTE      PTCLDY    67  39  35 S5        30.01R
MUNCIE*        CLEAR     67  42  40 SW3       30.03S
INDIANAPOLIS   MOCLDY    65  43  44 SW8       30.03R

$$
MIZ043>046-050>051-056>058-064>065-071>073-077>080-030200-
SOUTHWEST LOWER MICHIGAN

CITY           SKY/WX    TMP DP  RH WIND       PRES   REMARKS
BATTLE CREEK   CLEAR     67  35  30 NW3       30.00S
BENTON HARBOR  PTCLDY    63  38  39 CALM      29.97F
COLDWATER*     CLEAR     64  34  32 CALM      29.99S
HILLSDALE*     CLEAR     67  34  29 CALM      30.01S
HOLLAND        CLEAR     63  37  38 S5        29.98S
GRAND RAPIDS   PTCLDY    66  29  24 SW6       29.98S
KALAMAZOO      CLEAR     66  36  32 CALM      30.00R
STURGIS*       CLEAR     66  36  32 CALM      29.99S
THREE RIVERS*  FAIR      64  37  36 CALM      30.00R

$$
OHZ001>008-015>018-024>025-030200-
NORTHWEST OHIO

CITY           SKY/WX    TMP DP  RH WIND       PRES   REMARKS
DEFIANCE       CLEAR     68  39  34 SW3       30.01S
FINDLAY        CLEAR     68  40  35 SW3       30.01R
TOLEDO EXPRESS CLEAR     67  38  34 SW3       30.00S
TOLEDO METCALF CLEAR     67  40  37 SW6       30.01R
LIMA           CLEAR     65  42  43 SW6       30.03R

$$
AND FOR LAKE MICHIGAN COASTAL AND OPEN LAKE BUOY OBSERVATIONS

STATION/POSITION TEMP    WIND        PRES    VSBY  WAVE
                 AIR SEA DIR/SP/G                  HT/PER
                 (F)     (DEG/KT/KT) (MB)    (MI)  (FT/S)
CALUMET HARBOR    61      80/  2/  4   N/A
MICHIGAN CITY     64      40/ 10/ 11   N/A
BURNS HARBOR      62      CALM  /  3 1015.2S
SAINT JOSEPH      72      CALM  /  1 1015.2F
4 MI NW BRIDGMAN  67 54  140/  4/  4   N/A           0
MICHIGAN CITY     58 51  100/  6/  8   N/A           0
MICHIGAN CITY CG     52              1016.8      6   0

$$
&&



USA.gov is the U.S. government's official web portal to all federal, state and local government web resources and services.